Tracking 28794 objects as of 19-Apr-2024
HD Live streaming from Space Station
objects crossing your sky now

COSMOS 2251 DEB

Track COSMOS 2251 DEB now!
10-day predictions


NORAD ID: 34473
Int'l Code: 1993-036TS
Perigee: 665.7 km
Apogee: 696.9 km
Inclination: 74.0 °
Period: 98.2 minutes
Semi major axis: 7052 km
RCS: 0.0156 m2 (small)
Launch date: June 16, 1993
Source: Commonwealth of Independent States (former USSR) (CIS)
Launch site: PLESETSK MISSILE AND SPACE COMPLEX (PKMTR)

Note: This is SATELLITE DEBRIS
Your satellite tracking list
Your tracking list is empty




NASA's NSSDC Master Catalog

Two Line Element Set (TLE):
1 34473U 93036TS  24110.35872793  .00029751  00000-0  54024-2 0  9995
2 34473  74.0252 170.1241 0022074 341.5478 144.8125 14.65906904798740
Source of the keplerian elements: AFSPC